Time,TemperatureF,DewpointF,PressureIn,WindDirection,WindDirectionDegrees,WindSpeedMPH,WindSpeedGustMPH,Humidity,HourlyPrecipIn,Conditions,Clouds,dailyrainin,SolarRadiationWatts/m^2,SoftwareType,DateUTC
2013-03-07 00:30:00,34.4,32.0,30.14,East,81,0.0,0.0,91,0.00,,,0.00,0,Wunderground v.1.15,2013-03-07 05:30:00,
2013-03-07 00:40:00,34.4,32.0,30.14,East,81,0.0,0.0,91,0.00,,,0.00,0,Wunderground v.1.15,2013-03-07 05:40:00,
2013-03-07 00:50:00,34.5,32.1,30.14,East,81,0.0,0.0,91,0.00,,,0.00,0,Wunderground v.1.15,2013-03-07 05:50:00,
2013-03-07 01:00:00,34.7,32.1,30.14,East,81,0.0,0.0,90,0.00,,,0.00,0,Wunderground v.1.15,2013-03-07 06:00:00,
2013-03-07 01:10:00,34.5,31.9,30.15,East,81,0.0,0.0,90,0.00,,,0.00,0,Wunderground v.1.15,2013-03-07 06:10:00,
2013-03-07 01:20:00,34.2,31.6,30.15,NE,37,0.0,0.0,90,0.00,,,0.00,0,Wunderground v.1.15,2013-03-07 06:20:00,
2013-03-07 01:30:00,34.3,31.7,30.15,NE,37,1.0,1.0,90,0.00,,,0.00,0,Wunderground v.1.15,2013-03-07 06:30:00,
2013-03-07 01:40:00,34.3,31.7,30.15,NNE,30,1.0,1.0,90,0.00,,,0.00,0,Wunderground v.1.15,2013-03-07 06:40:00,
2013-03-07 01:50:00,34.4,31.5,30.15,NE,46,2.0,2.0,89,0.00,,,0.00,0,Wunderground v.1.15,2013-03-07 06:50:00,
2013-03-07 02:00:00,34.7,31.8,30.15,NE,49,2.0,2.0,89,0.00,,,0.00,0,Wunderground v.1.15,2013-03-07 07:00:00,
2013-03-07 02:10:00,34.9,32.0,30.15,NE,43,2.0,2.0,89,0.00,,,0.00,0,Wunderground v.1.15,2013-03-07 07:10:00,
2013-03-07 02:20:00,35.0,32.4,30.15,NE,34,2.0,2.0,90,0.00,,,0.00,0,Wunderground v.1.15,2013-03-07 07:20:00,
2013-03-07 02:30:00,34.9,32.5,30.15,NNE,30,1.0,1.0,91,0.00,,,0.00,0,Wunderground v.1.15,2013-03-07 07:30:00,
2013-03-07 02:40:00,35.0,32.6,30.15,NE,42,1.0,2.0,91,0.00,,,0.00,0,Wunderground v.1.15,2013-03-07 07:40:00,
2013-03-07 02:50:00,35.0,32.6,30.15,NE,42,1.0,1.0,91,0.00,,,0.00,0,Wunderground v.1.15,2013-03-07 07:50:00,
2013-03-07 03:00:00,34.8,32.7,30.15,NE,51,1.0,2.0,92,0.00,,,0.00,0,Wunderground v.1.15,2013-03-07 08:00:00,
2013-03-07 03:10:00,34.7,32.9,30.15,NE,49,2.0,2.0,93,0.00,,,0.00,0,Wunderground v.1.15,2013-03-07 08:10:00,
2013-03-07 03:20:00,34.8,33.0,30.15,NE,40,2.0,2.0,93,0.00,,,0.00,0,Wunderground v.1.15,2013-03-07 08:20:00,
2013-03-07 03:30:00,34.9,33.1,30.15,NNE,28,2.0,3.0,93,0.00,,,0.00,0,Wunderground v.1.15,2013-03-07 08:30:00,
2013-03-07 03:40:00,34.9,33.1,30.16,NNE,28,1.0,1.0,93,0.00,,,0.00,0,Wunderground v.1.15,2013-03-07 08:40:00,
2013-03-07 03:50:00,34.8,33.0,30.16,NNE,28,1.0,1.0,93,0.00,,,0.00,0,Wunderground v.1.15,2013-03-07 08:50:00,
2013-03-07 04:00:00,34.9,33.1,30.16,NE,46,2.0,2.0,93,0.00,,,0.00,0,Wunderground v.1.15,2013-03-07 09:00:00,
2013-03-07 04:10:00,34.9,33.3,30.16,NNE,32,2.0,2.0,94,0.00,,,0.00,0,Wunderground v.1.15,2013-03-07 09:10:00,
2013-03-07 04:20:00,34.9,33.3,30.16,NE,51,2.0,2.0,94,0.00,,,0.00,0,Wunderground v.1.15,2013-03-07 09:20:00,
2013-03-07 04:30:00,34.7,33.2,30.16,ENE,63,3.0,3.0,94,0.00,,,0.00,0,Wunderground v.1.15,2013-03-07 09:30:00,
2013-03-07 04:40:00,34.7,33.2,30.16,NE,49,3.0,3.0,94,0.00,,,0.00,0,Wunderground v.1.15,2013-03-07 09:40:00,
2013-03-07 04:50:00,34.7,33.2,30.16,ENE,57,3.0,3.0,94,0.00,,,0.00,0,Wunderground v.1.15,2013-03-07 09:50:00,
2013-03-07 05:00:00,34.6,33.1,30.16,ENE,59,3.0,3.0,94,0.00,,,0.00,0,Wunderground v.1.15,2013-03-07 10:00:00,
2013-03-07 05:10:00,34.6,33.1,30.16,NE,54,2.0,3.0,94,0.00,,,0.00,0,Wunderground v.1.15,2013-03-07 10:10:00,
2013-03-07 05:20:00,34.6,33.1,30.16,NE,49,2.0,2.0,94,0.00,,,0.00,0,Wunderground v.1.15,2013-03-07 10:20:00,
2013-03-07 05:30:00,34.5,33.0,30.15,NE,42,2.0,2.0,94,0.00,,,0.00,0,Wunderground v.1.15,2013-03-07 10:30:00,
2013-03-07 05:40:00,34.5,33.0,30.15,NE,35,2.0,2.0,94,0.00,,,0.00,0,Wunderground v.1.15,2013-03-07 10:40:00,
2013-03-07 05:50:00,34.4,32.9,30.15,NE,34,1.0,2.0,94,0.00,,,0.00,0,Wunderground v.1.15,2013-03-07 10:50:00,
2013-03-07 06:00:00,34.4,32.9,30.15,NNE,31,1.0,1.0,94,0.00,,,0.00,0,Wunderground v.1.15,2013-03-07 11:00:00,
2013-03-07 06:10:00,34.3,32.8,30.15,NNE,31,0.0,0.0,94,0.00,,,0.00,0,Wunderground v.1.15,2013-03-07 11:10:00,
2013-03-07 06:20:00,34.1,32.6,30.15,NNE,19,0.0,0.0,94,0.00,,,0.00,0,Wunderground v.1.15,2013-03-07 11:20:00,
2013-03-07 06:30:00,34.0,32.5,30.15,NNE,19,0.0,0.0,94,0.00,,,0.00,0,Wunderground v.1.15,2013-03-07 11:30:00,
2013-03-07 06:40:00,33.9,32.4,30.15,NNE,19,0.0,0.0,94,0.00,,,0.00,0,Wunderground v.1.15,2013-03-07 11:40:00,
2013-03-07 06:50:00,33.8,32.3,30.15,NNE,19,0.0,0.0,94,0.00,,,0.00,9,Wunderground v.1.15,2013-03-07 11:50:00,
2013-03-07 07:00:00,33.7,32.2,30.16,North,355,0.0,0.0,94,0.00,,,0.00,18,Wunderground v.1.15,2013-03-07 12:00:00,
2013-03-07 07:10:00,33.8,32.5,30.16,NNW,327,1.0,1.0,95,0.00,,,0.00,30,Wunderground v.1.15,2013-03-07 12:10:00,
2013-03-07 07:20:00,33.9,32.6,30.16,NNW,338,0.0,0.0,95,0.00,,,0.00,44,Wunderground v.1.15,2013-03-07 12:20:00,
2013-03-07 07:30:00,34.1,32.8,30.16,NNW,334,0.0,0.0,95,0.00,,,0.00,74,Wunderground v.1.15,2013-03-07 12:30:00,
2013-03-07 07:40:00,34.2,32.9,30.16,NNW,334,0.0,0.0,95,0.00,,,0.00,93,Wunderground v.1.15,2013-03-07 12:40:00,
2013-03-07 07:50:00,34.6,33.1,30.17,NNW,338,0.0,0.0,94,0.00,,,0.00,118,Wunderground v.1.15,2013-03-07 12:50:00,
2013-03-07 08:00:00,35.3,33.7,30.17,North,355,0.0,1.0,94,0.00,,,0.00,153,Wunderground v.1.15,2013-03-07 13:00:00,
2013-03-07 08:10:00,36.0,33.9,30.17,North,360,2.0,4.0,92,0.00,,,0.00,229,Wunderground v.1.15,2013-03-07 13:10:00,
2013-03-07 08:20:00,36.3,33.9,30.18,NNE,15,4.0,4.0,91,0.00,,,0.00,181,Wunderground v.1.15,2013-03-07 13:20:00,
2013-03-07 08:30:00,36.5,34.1,30.18,NNE,13,5.0,5.0,91,0.00,,,0.00,162,Wunderground v.1.15,2013-03-07 13:30:00,
2013-03-07 08:40:00,36.5,33.8,30.18,ENE,63,3.0,3.0,90,0.00,,,0.00,199,Wunderground v.1.15,2013-03-07 13:40:00,
2013-03-07 08:50:00,36.7,34.0,30.18,NE,41,4.0,4.0,90,0.00,,,0.00,206,Wunderground v.1.15,2013-03-07 13:50:00,
2013-03-07 09:00:00,36.8,33.9,30.18,NE,44,4.0,4.0,89,0.00,,,0.00,202,Wunderground v.1.15,2013-03-07 14:00:00,
2013-03-07 09:10:00,36.9,33.7,30.18,ENE,60,4.0,5.0,88,0.00,,,0.00,209,Wunderground v.1.15,2013-03-07 14:10:00,
2013-03-07 09:20:00,37.0,33.8,30.18,NE,44,5.0,6.0,88,0.00,,,0.00,225,Wunderground v.1.15,2013-03-07 14:20:00,
2013-03-07 09:30:00,37.2,33.4,30.18,NE,56,4.0,5.0,86,0.00,,,0.00,308,Wunderground v.1.15,2013-03-07 14:30:00,
2013-03-07 09:40:00,37.3,33.2,30.19,ENE,59,6.0,6.0,85,0.00,,,0.00,304,Wunderground v.1.15,2013-03-07 14:40:00,
2013-03-07 09:50:00,37.7,33.0,30.19,NE,44,4.0,4.0,83,0.00,,,0.00,248,Wunderground v.1.15,2013-03-07 14:50:00,
2013-03-07 10:00:00,37.4,33.3,30.19,North,11,5.0,5.0,85,0.00,,,0.00,250,Wunderground v.1.15,2013-03-07 15:00:00,
2013-03-07 10:10:00,37.5,33.4,30.19,NNE,24,5.0,5.0,85,0.00,,,0.00,322,Wunderground v.1.15,2013-03-07 15:10:00,
2013-03-07 10:20:00,37.5,33.1,30.19,NE,43,5.0,7.0,84,0.00,,,0.00,239,Wunderground v.1.15,2013-03-07 15:20:00,
2013-03-07 10:30:00,37.1,33.0,30.19,NE,48,6.0,6.0,85,0.00,,,0.00,195,Wunderground v.1.15,2013-03-07 15:30:00,
2013-03-07 10:40:00,37.2,33.4,30.20,NE,44,5.0,5.0,86,0.00,,,0.00,202,Wunderground v.1.15,2013-03-07 15:40:00,
2013-03-07 10:50:00,36.8,33.0,30.20,NNE,30,5.0,5.0,86,0.00,,,0.00,158,Wunderground v.1.15,2013-03-07 15:50:00,
2013-03-07 11:00:00,36.5,33.0,30.20,NNE,17,6.0,6.0,87,0.00,,,0.00,120,Wunderground v.1.15,2013-03-07 16:00:00,
2013-03-07 11:10:00,36.2,33.0,30.21,NNE,28,6.0,7.0,88,0.00,,,0.00,151,Wunderground v.1.15,2013-03-07 16:10:00,
2013-03-07 11:20:00,36.3,32.8,30.21,North,355,6.0,6.0,87,0.00,,,0.00,209,Wunderground v.1.15,2013-03-07 16:20:00,
2013-03-07 11:30:00,36.4,32.9,30.21,NNE,28,6.0,6.0,87,0.00,,,0.00,253,Wunderground v.1.15,2013-03-07 16:30:00,
2013-03-07 11:40:00,36.5,32.7,30.21,NE,34,6.0,7.0,86,0.00,,,0.00,206,Wunderground v.1.15,2013-03-07 16:40:00,
2013-03-07 11:50:00,36.8,32.7,30.21,NNW,340,5.0,7.0,85,0.00,,,0.00,272,Wunderground v.1.15,2013-03-07 16:50:00,
2013-03-07 12:00:00,37.0,32.9,30.21,North,355,5.0,8.0,85,0.00,,,0.00,316,Wunderground v.1.15,2013-03-07 17:00:00,
2013-03-07 12:10:00,36.9,32.8,30.21,NNE,28,7.0,8.0,85,0.00,,,0.00,374,Wunderground v.1.15,2013-03-07 17:10:00,
2013-03-07 12:20:00,37.1,32.7,30.21,NE,41,6.0,8.0,84,0.00,,,0.00,376,Wunderground v.1.15,2013-03-07 17:20:00,
2013-03-07 12:30:00,36.8,32.4,30.21,NNE,32,8.0,8.0,84,0.00,,,0.00,271,Wunderground v.1.15,2013-03-07 17:30:00,
2013-03-07 12:40:00,36.5,32.1,30.21,North,355,7.0,7.0,84,0.00,,,0.00,287,Wunderground v.1.15,2013-03-07 17:40:00,
2013-03-07 12:50:00,36.4,32.3,30.20,ENE,61,8.0,8.0,85,0.00,,,0.00,322,Wunderground v.1.15,2013-03-07 17:50:00,
2013-03-07 13:00:00,36.2,31.8,30.20,North,9,7.0,7.0,84,0.00,,,0.00,265,Wunderground v.1.15,2013-03-07 18:00:00,
2013-03-07 13:10:00,35.9,31.5,30.21,NNE,30,8.0,9.0,84,0.00,,,0.00,190,Wunderground v.1.15,2013-03-07 18:10:00,
2013-03-07 13:20:00,35.7,31.3,30.21,NNE,26,7.0,7.0,84,0.00,,,0.00,190,Wunderground v.1.15,2013-03-07 18:20:00,
2013-03-07 13:30:00,35.7,31.3,30.21,NNE,22,7.0,7.0,84,0.00,,,0.00,185,Wunderground v.1.15,2013-03-07 18:30:00,
2013-03-07 13:40:00,35.5,31.4,30.21,NE,44,7.0,7.0,85,0.00,,,0.00,181,Wunderground v.1.15,2013-03-07 18:40:00,
2013-03-07 13:50:00,35.4,31.3,30.21,NNE,14,6.0,7.0,85,0.00,,,0.00,156,Wunderground v.1.15,2013-03-07 18:50:00,
2013-03-07 14:00:00,35.3,31.2,30.21,NE,43,7.0,7.0,85,0.00,,,0.00,221,Wunderground v.1.15,2013-03-07 19:00:00,
2013-03-07 14:10:00,35.4,31.0,30.21,NNE,19,6.0,9.0,84,0.00,,,0.00,221,Wunderground v.1.15,2013-03-07 19:10:00,
2013-03-07 14:20:00,35.4,31.0,30.21,NNE,22,6.0,9.0,84,0.00,,,0.00,202,Wunderground v.1.15,2013-03-07 19:20:00,
2013-03-07 14:30:00,35.3,30.9,30.22,NNE,13,7.0,7.0,84,0.00,,,0.00,183,Wunderground v.1.15,2013-03-07 19:30:00,
2013-03-07 14:40:00,35.6,30.9,30.22,NNE,23,7.0,7.0,83,0.00,,,0.00,272,Wunderground v.1.15,2013-03-07 19:40:00,
2013-03-07 14:50:00,35.6,30.6,30.22,NNW,335,7.0,7.0,82,0.00,,,0.00,271,Wunderground v.1.15,2013-03-07 19:50:00,
2013-03-07 15:00:00,35.9,30.6,30.22,North,360,5.0,7.0,81,0.00,,,0.00,258,Wunderground v.1.15,2013-03-07 20:00:00,
2013-03-07 15:10:00,35.8,30.2,30.22,NNW,348,6.0,6.0,80,0.00,,,0.00,214,Wunderground v.1.15,2013-03-07 20:10:00,
2013-03-07 15:20:00,35.7,30.1,30.22,NNE,24,7.0,12.0,80,0.00,,,0.00,197,Wunderground v.1.15,2013-03-07 20:20:00,
2013-03-07 15:30:00,35.7,29.5,30.22,NNE,15,8.0,10.0,78,0.00,,,0.00,200,Wunderground v.1.15,2013-03-07 20:30:00,
2013-03-07 15:40:00,35.7,29.2,30.23,NNE,25,8.0,8.0,77,0.00,,,0.00,200,Wunderground v.1.15,2013-03-07 20:40:00,
2013-03-07 15:50:00,35.7,28.9,30.23,NNE,24,7.0,7.0,76,0.00,,,0.00,167,Wunderground v.1.15,2013-03-07 20:50:00,
2013-03-07 16:00:00,35.5,29.3,30.23,NE,49,6.0,9.0,78,0.00,,,0.00,209,Wunderground v.1.15,2013-03-07 21:00:00,
2013-03-07 16:10:00,35.6,28.8,30.23,NE,55,7.0,7.0,76,0.00,,,0.00,313,Wunderground v.1.15,2013-03-07 21:10:00,
2013-03-07 16:20:00,35.8,28.3,30.23,NE,44,7.0,7.0,74,0.00,,,0.00,253,Wunderground v.1.15,2013-03-07 21:20:00,
2013-03-07 16:30:00,35.6,28.1,30.23,ENE,59,6.0,6.0,74,0.00,,,0.00,236,Wunderground v.1.15,2013-03-07 21:30:00,
2013-03-07 16:40:00,35.6,28.1,30.23,NE,45,6.0,6.0,74,0.00,,,0.00,167,Wunderground v.1.15,2013-03-07 21:40:00,
2013-03-07 16:50:00,35.6,27.8,30.23,ENE,71,7.0,8.0,73,0.00,,,0.00,162,Wunderground v.1.15,2013-03-07 21:50:00,
2013-03-07 17:00:00,35.6,27.5,30.24,NE,53,6.0,6.0,72,0.00,,,0.00,139,Wunderground v.1.15,2013-03-07 22:00:00,
2013-03-07 17:10:00,35.6,27.5,30.24,NE,35,5.0,5.0,72,0.00,,,0.00,102,Wunderground v.1.15,2013-03-07 22:10:00,
2013-03-07 17:20:00,35.3,27.2,30.24,NNE,26,5.0,8.0,72,0.00,,,0.00,70,Wunderground v.1.15,2013-03-07 22:20:00,
2013-03-07 17:30:00,35.1,27.3,30.24,NNE,25,5.0,5.0,73,0.00,,,0.00,42,Wunderground v.1.15,2013-03-07 22:30:00,
2013-03-07 17:40:00,34.9,27.8,30.25,ENE,63,3.0,7.0,75,0.00,,,0.00,23,Wunderground v.1.15,2013-03-07 22:40:00,
2013-03-07 17:50:00,34.8,27.7,30.25,NE,46,5.0,5.0,75,0.00,,,0.00,12,Wunderground v.1.15,2013-03-07 22:50:00,
2013-03-07 18:00:00,34.7,27.9,30.25,NNE,18,4.0,4.0,76,0.00,,,0.00,5,Wunderground v.1.15,2013-03-07 23:00:00,
2013-03-07 18:10:00,34.5,27.7,30.25,NNE,23,4.0,4.0,76,0.00,,,0.00,0,Wunderground v.1.15,2013-03-07 23:10:00,
2013-03-07 18:30:00,34.3,28.2,30.26,NE,35,5.0,5.0,78,0.00,,,0.00,0,Wunderground v.1.15,2013-03-07 23:30:00,
2013-03-07 18:40:00,34.2,27.7,30.26,NNE,27,5.0,5.0,77,0.00,,,0.00,0,Wunderground v.1.15,2013-03-07 23:40:00,
2013-03-07 18:50:00,34.1,27.6,30.26,NNE,24,4.0,7.0,77,0.00,,,0.00,0,Wunderground v.1.15,2013-03-07 23:50:00,
2013-03-07 19:00:00,34.0,27.5,30.27,NE,36,5.0,7.0,77,0.00,,,0.00,0,Wunderground v.1.15,2013-03-08 00:00:00,
2013-03-07 19:10:00,33.9,27.8,30.27,ENE,68,6.0,8.0,78,0.00,,,0.00,0,Wunderground v.1.15,2013-03-08 00:10:00,
2013-03-07 19:20:00,33.7,27.9,30.27,North,9,4.0,4.0,79,0.00,,,0.00,0,Wunderground v.1.15,2013-03-08 00:20:00,
2013-03-07 19:30:00,33.6,27.5,30.27,NE,52,3.0,4.0,78,0.00,,,0.00,0,Wunderground v.1.15,2013-03-08 00:30:00,
2013-03-07 19:40:00,33.5,27.7,30.27,NNW,341,2.0,3.0,79,0.00,,,0.00,0,Wunderground v.1.15,2013-03-08 00:40:00,
2013-03-07 19:50:00,33.6,27.8,30.27,NE,35,4.0,4.0,79,0.00,,,0.00,0,Wunderground v.1.15,2013-03-08 00:50:00,
2013-03-07 20:00:00,33.5,27.7,30.27,NE,44,3.0,4.0,79,0.00,,,0.00,0,Wunderground v.1.15,2013-03-08 01:00:00,
2013-03-07 20:10:00,33.5,28.0,30.27,NNE,28,3.0,3.0,80,0.00,,,0.00,0,Wunderground v.1.15,2013-03-08 01:10:00,
2013-03-07 20:20:00,33.4,27.9,30.27,NE,52,3.0,3.0,80,0.00,,,0.00,0,Wunderground v.1.15,2013-03-08 01:20:00,
2013-03-07 20:30:00,33.4,28.2,30.27,NNE,25,2.0,4.0,81,0.00,,,0.00,0,Wunderground v.1.15,2013-03-08 01:30:00,
2013-03-07 20:40:00,33.3,27.8,30.27,NNE,26,2.0,2.0,80,0.00,,,0.00,0,Wunderground v.1.15,2013-03-08 01:40:00,
2013-03-07 20:50:00,33.2,27.4,30.27,NNE,21,2.0,2.0,79,0.00,,,0.00,0,Wunderground v.1.15,2013-03-08 01:50:00,
2013-03-07 21:00:00,33.2,27.1,30.28,NNE,14,2.0,2.0,78,0.00,,,0.00,0,Wunderground v.1.15,2013-03-08 02:00:00,
2013-03-07 21:10:00,33.1,27.0,30.28,NNE,20,2.0,3.0,78,0.00,,,0.00,0,Wunderground v.1.15,2013-03-08 02:10:00,
2013-03-07 21:20:00,33.2,27.1,30.28,NNE,18,3.0,3.0,78,0.00,,,0.00,0,Wunderground v.1.15,2013-03-08 02:20:00,
2013-03-07 21:30:00,33.1,27.0,30.27,NNE,22,3.0,3.0,78,0.00,,,0.00,0,Wunderground v.1.15,2013-03-08 02:30:00,
2013-03-07 21:40:00,33.1,27.3,30.27,NNE,22,3.0,3.0,79,0.00,,,0.00,0,Wunderground v.1.15,2013-03-08 02:40:00,
2013-03-07 21:50:00,33.0,27.8,30.27,NE,34,3.0,3.0,81,0.00,,,0.00,0,Wunderground v.1.15,2013-03-08 02:50:00,
2013-03-07 22:00:00,32.9,27.7,30.27,NNE,33,3.0,3.0,81,0.00,,,0.00,0,Wunderground v.1.15,2013-03-08 03:00:00,
2013-03-07 22:10:00,32.8,27.9,30.27,NNE,16,2.0,2.0,82,0.00,,,0.00,0,Wunderground v.1.15,2013-03-08 03:10:00,
2013-03-07 22:20:00,32.6,27.4,30.27,North,355,2.0,3.0,81,0.00,,,0.00,0,Wunderground v.1.15,2013-03-08 03:20:00,
2013-03-07 22:30:00,32.5,27.3,30.27,North,10,2.0,3.0,81,0.00,,,0.00,0,Wunderground v.1.15,2013-03-08 03:30:00,
2013-03-07 22:40:00,32.5,27.0,30.26,NNE,20,3.0,3.0,80,0.00,,,0.00,0,Wunderground v.1.15,2013-03-08 03:40:00,
2013-03-07 22:50:00,32.4,26.9,30.27,North,360,2.0,2.0,80,0.00,,,0.00,0,Wunderground v.1.15,2013-03-08 03:50:00,
2013-03-07 23:00:00,32.4,27.2,30.27,North,5,1.0,1.0,81,0.00,,,0.00,0,Wunderground v.1.15,2013-03-08 04:00:00,
2013-03-07 23:10:00,32.3,26.8,30.26,NNW,348,2.0,4.0,80,0.00,,,0.00,0,Wunderground v.1.15,2013-03-08 04:10:00,
2013-03-07 23:20:00,32.3,26.8,30.26,North,360,2.0,3.0,80,0.00,,,0.00,0,Wunderground v.1.15,2013-03-08 04:20:00,
2013-03-07 23:30:00,32.3,26.5,30.26,NNE,19,3.0,4.0,79,0.00,,,0.00,0,Wunderground v.1.15,2013-03-08 04:30:00,
2013-03-07 23:40:00,32.3,25.9,30.26,NNE,20,2.0,2.0,77,0.00,,,0.00,0,Wunderground v.1.15,2013-03-08 04:40:00,
2013-03-07 23:50:00,32.3,25.6,30.26,North,360,3.0,3.0,76,0.00,,,0.00,0,Wunderground v.1.15,2013-03-08 04:50:00,